Location: Bathurst
(33.4193°S, 149.5775°E)
Time: 21:08:04
(UTC+11:00)

ISS - Pass Details

Date: 30 January 2021
Orbit: 417 x 422 km, 51.6° (Epoch: 27 February)

Event Time Altitude Azimuth Distance (km) Brightness Sun altitude
Exits shadow 04:41:18 10° 225° (SW) 1,509 -1.0 -19.0°
Maximum altitude 04:42:21 11° 207° (SSW) 1,445 -0.9 -18.9°
Drops below altitude 10° 04:43:30 10° 188° (S) 1,524 -0.5 -18.7°
Sets 04:46:56 0° 151° (SSE) 2,394 1.3 -18.1°
